To NAV CANADA Home Page Login to a new session Search on AWWS site Feedback and Comments Disclaimer Vers la page française équivalente Tips FAQ What's new on the site To the Forecasts and Observations / NOTAM section To "File a Flight Plan" website Publications and other links Update of the User's profile FIC Telephone Numbers My Weather Data Folder Route Weather Data Regional Weather Data Local Weather Data To the Forecasts and Observations / NOTAM section
Request Generated 04/23/2014 at 09:46:01 UTC . Weather information available at that time is displayed.

METAR/TAF

FARO/YT    

CZFA - METAR not available

*** REMARK        : Forecast period has ended; this was the last TAF issued
*** REMARQUE : La période de prévision est échue; ceci était le dernier TAF qui a été émis
TAF CZFA 221738Z 2218/2222 12005KT P6SM SCT025 BKN050 TEMPO 2218/2222
5SM -SHRA BR FEW015 OVC025
RMK NXT FCST WILL BE ISSUED AT 231545Z=
Your time UTC time
Weather data provided by Environment Canada and NAV CANADA